Theta_e
306 306 306 307 307 307 307 307 307 308 308 307 307 307 307 307 307 307 307 306 306 307 307 307 307 307 307 307 308 308 307 308 310 312 312 315 316 313 311 310 311 310 307 305 306 307 309 311 313 312 310 310 309 308 308 309 309 310 312 311 310 310 312 313 314 315 316 317 317 317 318 318 319 319 320 320 320 320 321 321 322 323 324 323 330 349 353 353
306 306 306 306 307 307 306 307 307 307 307 307 307 306 307 307 307 307 307 306 306 306 306 306 307 307 307 307 308 307 307 309 311 312 314 316 315 314 313 311 311 308 305 305 308 310 312 312 312 311 309 309 309 309 308 309 309 309 311 310 310 311 312 313 315 315 315 317 317 319 318 318 318 319 320 319 319 319 320 320 321 323 320 330 345 350 351 354
307 306 306 306 306 306 306 307 307 307 307 306 306 306 307 307 306 307 307 306 306 306 306 307 307 307 307 307 307 307 308 310 312 314 316 316 315 314 312 310 310 307 304 307 311 314 314 312 310 310 309 309 309 309 308 309 308 309 309 310 310 311 312 313 314 314 315 317 317 317 317 317 318 318 318 318 319 318 320 320 320 322 320 340 352 351 353 355
306 306 306 306 306 306 306 306 306 307 307 306 306 306 307 307 307 306 306 306 306 306 307 306 307 307 307 307 307 307 309 312 314 315 316 314 311 309 307 306 305 304 305 308 312 314 313 310 310 309 309 309 309 309 308 309 308 308 309 309 310 311 312 312 313 313 314 316 316 316 316 317 317 318 318 317 319 318 320 320 321 323 319 343 352 353 355 357
306 306 306 306 306 306 306 306 306 306 306 306 306 307 307 307 307 307 307 307 306 306 306 307 307 306 307 307 306 307 311 314 315 315 312 309 306 304 304 304 303 304 308 309 311 313 311 309 309 308 308 308 308 308 308 309 309 309 310 309 310 310 311 312 313 312 313 315 315 315 315 316 316 317 317 316 317 317 320 320 321 323 318 339 348 349 352 354
306 306 306 306 306 306 306 306 306 306 306 306 307 307 307 307 307 307 307 307 306 306 306 307 307 306 307 307 307 309 312 315 315 312 309 306 304 304 304 304 303 305 310 312 314 314 311 309 308 308 308 308 308 308 308 309 309 309 309 310 310 310 310 311 311 312 312 314 314 314 314 315 315 315 315 315 316 316 318 318 319 321 318 328 337 342 349 351
306 306 306 305 305 306 306 306 306 306 306 306 306 307 307 307 307 307 307 307 306 307 307 307 306 307 307 307 309 311 312 315 314 310 307 306 305 304 304 305 306 308 310 312 314 313 310 309 309 308 309 309 308 308 308 309 309 309 309 310 310 310 310 310 311 311 311 313 314 313 312 312 312 313 314 314 314 315 315 316 316 318 318 320 320 331 345 344
305 305 305 305 305 305 306 306 305 306 306 306 307 307 307 307 307 307 307 307 307 307 307 307 307 307 307 308 311 313 313 314 313 309 307 306 305 305 305 306 308 310 310 311 312 311 310 308 309 309 309 309 309 309 309 309 309 309 309 310 310 310 311 311 311 311 312 312 312 312 311 310 311 311 312 312 313 313 313 314 314 315 316 319 318 321 338 343
305 305 305 305 305 305 305 305 305 306 306 307 307 307 307 307 307 307 307 307 307 307 307 307 307 307 307 309 311 313 313 311 311 309 308 307 307 307 307 307 308 311 312 311 311 311 310 309 309 308 309 309 309 309 309 309 309 309 309 310 310 310 312 311 310 311 311 311 311 311 310 310 310 309 309 310 311 311 312 312 312 314 314 316 318 318 328 338
305 305 305 305 305 305 305 305 306 306 306 307 307 307 307 307 306 307 306 306 307 307 308 307 307 307 307 310 312 313 312 310 310 309 309 308 307 308 307 307 308 311 311 311 311 311 310 309 308 308 308 308 308 309 309 309 310 310 310 310 310 310 311 310 310 310 311 311 310 310 309 309 309 308 308 309 311 311 311 312 312 313 313 315 317 318 322 325
305 305 305 305 305 305 305 305 306 306 306 307 307 306 306 306 305 305 306 305 306 307 307 307 307 307 309 310 312 314 312 311 310 309 309 308 307 307 307 308 309 310 310 310 311 311 310 309 309 309 308 308 307 308 308 309 309 310 310 309 309 309 309 310 310 310 310 310 309 309 308 309 309 308 308 309 310 310 310 311 312 312 312 314 315 317 319 320
305 305 305 305 305 305 305 305 306 306 306 306 306 305 305 305 305 305 305 306 305 305 306 306 306 307 310 311 312 313 312 311 310 310 309 308 308 308 308 308 309 309 310 309 310 311 311 310 309 308 308 308 307 307 308 308 309 309 308 308 308 308 308 309 309 310 309 309 309 309 308 307 308 308 308 309 310 310 310 310 311 312 312 313 314 315 318 318
305 305 305 305 304 304 305 305 306 306 305 305 305 305 305 305 305 305 305 306 305 305 306 306 307 309 310 312 313 312 311 310 310 310 310 309 309 309 308 309 309 309 309 309 310 311 311 310 309 308 308 307 307 307 308 308 308 308 308 308 308 308 307 308 308 308 308 308 309 308 307 307 308 309 309 310 310 309 310 310 310 311 312 313 314 314 317 318
305 305 304 304 304 304 304 305 305 305 305 305 305 305 305 306 306 305 305 305 305 306 307 306 307 310 311 313 314 311 309 308 309 309 310 310 310 310 310 309 309 309 309 309 309 310 310 310 310 309 308 308 307 308 308 308 308 308 308 308 308 307 307 308 308 308 308 308 309 308 306 307 308 309 309 310 310 310 309 310 310 310 311 312 313 314 316 318
304 304 304 304 304 304 304 304 304 304 305 305 306 306 306 306 306 306 306 306 306 307 308 307 308 312 312 314 314 312 309 308 310 310 310 311 310 310 311 310 309 309 308 309 308 308 309 310 309 308 308 308 308 307 307 307 307 307 308 308 308 307 307 308 309 309 308 308 309 308 306 306 308 309 310 310 310 310 310 310 310 310 311 311 313 314 315 317
304 304 304 303 303 304 304 304 304 304 305 306 306 307 307 307 307 306 306 306 307 308 309 311 312 312 313 314 313 311 310 309 311 311 311 310 310 310 311 310 310 309 309 309 309 309 309 309 308 308 308 308 308 308 307 307 307 307 307 307 307 307 307 307 309 309 309 309 309 308 306 307 308 308 309 310 310 310 310 310 311 310 310 311 313 314 315 316
304 304 304 303 303 304 304 304 303 305 306 306 307 308 309 309 308 308 307 307 307 309 311 314 314 312 313 313 311 311 311 311 312 311 311 310 310 310 310 310 310 311 310 310 309 309 309 309 308 308 308 308 308 308 308 308 308 308 308 308 307 307 307 307 308 309 309 309 308 308 307 307 308 309 309 310 310 311 310 311 311 311 311 312 312 313 316 317
304 304 303 303 303 303 303 303 304 305 307 307 308 309 310 311 310 308 308 308 309 311 312 313 312 313 314 313 311 312 312 312 311 311 311 311 310 310 310 310 310 310 310 310 310 309 309 309 308 309 309 309 308 308 309 309 309 309 309 308 308 307 307 307 307 309 309 308 308 308 308 308 308 308 309 310 310 310 310 311 311 312 312 312 312 313 316 318
304 304 303 303 303 303 303 303 305 306 307 309 309 310 312 313 310 310 311 312 312 313 315 313 312 314 314 312 312 312 312 312 311 311 312 311 311 311 311 311 310 310 310 310 310 310 309 309 310 310 309 310 309 309 309 309 309 309 309 308 308 307 308 308 308 309 309 308 308 308 308 308 309 309 309 309 310 310 310 311 311 312 313 313 313 314 315 318
304 304 303 303 303 303 303 304 306 307 307 308 309 312 313 313 312 312 312 312 312 313 313 312 312 313 311 311 312 312 312 312 311 312 312 312 312 311 311 311 310 310 310 310 310 311 310 310 311 311 310 310 310 310 309 309 310 309 309 309 308 308 308 309 309 309 310 309 308 309 309 309 309 309 309 310 309 309 310 310 311 311 312 313 313 313 314 317
303 303 303 303 302 302 303 305 306 308 308 307 308 312 311 310 310 311 310 310 311 312 311 311 312 311 311 312 312 312 312 311 311 312 312 312 311 311 311 311 310 310 310 310 310 311 311 311 311 311 311 311 311 311 311 310 310 310 310 310 309 309 309 309 309 310 310 309 309 309 309 309 309 309 309 310 309 309 309 309 311 311 311 312 313 314 313 316
303 303 302 302 302 303 304 305 306 309 309 309 311 312 310 309 310 310 310 310 311 312 312 311 311 311 311 312 312 312 311 310 311 312 312 312 311 311 311 311 311 311 311 312 312 313 313 312 311 311 311 312 312 311 311 311 311 311 311 310 310 310 309 309 309 309 310 309 309 309 309 308 309 309 309 310 309 309 309 309 310 310 311 312 312 314 315 316
303 302 299 300 303 303 305 306 307 308 309 311 313 311 309 310 309 309 310 311 311 312 312 312 311 311 311 312 313 311 310 311 311 312 312 312 311 311 311 311 312 311 311 313 313 314 314 312 311 312 312 313 313 312 311 311 311 311 311 311 310 310 310 310 310 310 310 309 309 309 309 309 309 309 309 310 310 310 309 309 310 309 311 312 312 314 315 316
302 300 298 301 304 305 305 307 308 309 310 313 313 310 310 309 310 310 310 311 312 312 313 312 311 311 311 311 311 311 311 312 311 312 312 312 311 312 312 311 312 311 311 312 312 313 313 312 312 313 312 312 312 312 311 312 312 312 311 311 310 310 310 310 310 310 309 309 309 308 309 308 309 309 309 310 310 310 310 309 310 309 310 312 313 315 315 317
301 297 298 302 305 305 305 308 311 311 312 313 311 310 310 309 310 310 310 312 314 314 313 312 312 313 312 311 312 311 311 312 312 313 313 312 312 312 312 312 312 311 311 312 312 312 312 312 312 312 312 312 312 312 311 312 313 312 311 311 310 311 311 310 310 310 310 310 310 309 309 309 309 309 309 310 310 310 310 309 309 309 309 310 311 314 315 317
299 297 299 304 305 306 308 311 312 312 312 312 311 310 310 310 311 310 311 315 317 314 312 312 313 314 312 311 313 311 312 313 313 313 314 313 313 312 312 312 312 312 312 312 312 312 312 312 312 312 312 312 312 312 311 312 313 312 311 311 311 311 311 311 310 310 310 310 310 309 309 309 309 309 309 310 310 310 311 310 310 309 309 310 309 312 313 316
298 297 300 305 305 305 309 312 312 312 312 311 310 311 310 310 311 310 314 319 318 313 312 313 314 314 313 312 313 312 313 314 313 313 314 313 313 311 312 312 312 312 312 313 314 313 312 312 312 311 311 311 312 313 311 311 312 312 311 311 311 312 311 311 311 310 310 310 310 309 309 309 309 309 310 310 310 310 311 310 310 309 309 310 309 311 312 315
297 297 301 306 306 306 307 309 312 314 312 310 311 311 310 311 311 311 317 321 319 313 313 314 313 313 313 313 313 311 313 312 313 315 314 313 313 312 312 312 312 312 312 314 314 314 311 312 312 311 313 313 312 312 311 312 312 311 311 311 311 311 310 310 310 310 310 310 311 310 309 310 310 309 309 309 309 309 310 310 310 310 309 310 310 311 312 314
297 298 302 306 308 310 310 309 313 314 310 310 311 310 311 311 312 314 318 319 318 313 313 313 313 313 312 312 312 312 313 312 315 316 314 313 313 312 313 313 312 312 312 313 313 313 312 313 313 312 313 313 312 311 311 312 311 310 310 310 311 310 310 310 310 309 310 311 311 310 310 311 310 309 309 309 309 309 310 310 310 311 310 311 310 310 312 313
297 299 303 307 308 312 313 313 314 311 309 310 311 311 312 312 314 318 318 316 314 313 313 313 313 312 312 313 312 313 314 313 314 314 314 315 315 314 313 313 312 312 313 313 313 313 312 313 314 313 313 312 311 311 311 311 311 310 311 310 310 310 310 310 310 309 311 312 311 309 310 310 310 310 308 309 310 309 310 310 310 310 310 311 311 311 312 312
298 300 304 307 308 310 312 315 312 309 309 311 312 312 313 315 317 317 315 313 313 313 312 312 312 312 312 313 313 313 313 314 313 313 314 315 315 315 314 314 313 314 314 314 315 314 313 314 314 313 313 312 310 310 310 310 310 310 311 310 310 310 310 311 310 310 312 312 311 309 309 310 310 309 308 309 310 309 310 310 310 311 310 311 311 311 312 311
299 301 306 307 307 308 311 313 310 308 310 312 312 313 316 318 317 314 312 312 313 313 312 312 312 311 312 313 314 313 313 313 313 313 313 313 314 315 315 315 315 316 315 314 315 314 312 313 313 312 313 314 312 310 310 309 309 310 310 311 312 311 311 312 312 311 312 311 310 309 309 309 309 309 308 308 309 309 310 310 310 311 310 311 311 311 313 313
301 303 307 308 308 309 311 312 309 308 310 312 313 315 317 318 314 311 311 311 312 312 311 311 311 311 313 314 313 313 313 313 313 313 313 313 313 315 314 314 314 315 314 314 313 312 311 312 311 311 313 314 312 310 310 310 310 310 310 311 312 311 312 313 311 309 310 309 309 309 308 308 308 308 308 308 308 309 310 310 310 311 311 312 311 312 314 313
304 306 307 309 311 312 313 310 308 309 311 312 314 317 318 315 311 311 310 310 311 311 311 311 311 312 314 314 313 313 313 313 313 312 312 313 313 315 315 314 313 313 313 314 313 312 312 312 311 309 312 312 310 310 310 310 310 309 309 309 310 311 311 311 309 307 308 307 307 308 307 307 306 307 308 308 308 309 309 309 310 311 311 312 311 312 314 313
307 310 309 311 313 313 311 308 307 309 311 314 316 317 316 311 310 311 309 310 311 311 311 311 311 313 314 314 314 313 313 313 312 312 312 313 313 314 314 314 313 312 312 313 313 312 312 312 310 309 309 310 309 310 309 309 309 309 308 309 310 310 310 310 309 309 309 308 308 308 308 308 307 308 308 308 309 308 309 309 309 310 310 310 311 313 315 313
310 313 313 314 313 309 307 307 307 309 311 315 316 313 310 309 310 310 309 310 311 311 312 312 311 313 313 313 314 313 313 312 312 311 312 312 313 314 314 313 312 311 312 312 313 312 312 312 310 309 309 308 308 309 308 308 308 309 308 308 309 309 308 309 310 310 310 309 309 308 308 308 307 309 308 308 309 309 309 309 309 309 310 310 311 314 315 313
312 315 316 316 311 306 306 307 308 309 311 315 315 309 308 310 309 309 309 310 311 311 312 312 312 313 313 314 314 313 312 312 311 311 312 312 312 313 313 313 312 311 312 312 312 313 312 312 311 309 310 308 308 309 307 307 308 308 307 307 308 308 308 309 309 310 309 309 309 308 307 308 308 309 309 308 308 308 309 310 310 309 310 311 311 314 316 314
310 315 317 315 310 306 306 308 308 309 313 316 315 309 308 309 308 309 310 310 311 311 311 312 312 312 313 313 314 313 313 313 312 311 312 312 313 313 313 312 312 312 312 312 312 312 312 313 312 309 310 309 308 308 308 307 306 306 307 307 307 308 308 308 309 309 309 309 309 307 308 309 308 309 314 316 315 313 310 309 310 310 309 310 311 313 316 317
311 316 316 311 307 307 307 308 309 311 314 315 312 309 309 309 309 310 310 310 310 310 311 312 312 312 312 313 314 313 313 313 312 311 312 312 312 313 312 311 312 313 312 312 312 312 313 313 313 310 309 310 309 309 309 308 307 306 306 306 307 307 308 308 308 309 310 311 311 311 311 311 311 318 322 320 319 318 314 311 310 311 310 310 312 313 316 319
315 317 315 309 308 308 308 310 312 313 313 311 308 309 309 308 309 309 310 310 310 311 311 311 312 312 313 313 313 313 312 312 311 311 311 311 312 313 312 312 313 313 312 311 313 313 313 313 314 312 310 311 311 310 309 308 308 308 307 306 306 307 307 308 308 308 310 312 312 313 314 312 315 322 321 316 316 317 318 317 313 311 312 312 314 316 319 321
316 316 313 309 309 310 310 313 313 311 311 309 308 309 309 308 310 309 309 310 310 311 311 311 312 313 313 313 313 312 312 311 311 311 311 311 312 313 312 314 315 314 313 313 314 314 313 313 314 313 312 312 311 310 308 308 308 308 308 307 307 307 308 309 309 309 309 311 311 313 315 314 313 318 317 315 317 317 318 322 319 313 313 315 315 318 321 322
315 314 313 311 309 310 312 312 310 309 310 309 308 309 310 309 310 309 309 309 310 311 311 311 312 312 312 312 312 312 311 311 311 311 311 312 312 312 312 313 314 314 313 313 314 314 314 313 314 314 313 312 312 311 310 309 308 308 308 308 308 308 308 309 310 310 310 311 312 314 316 316 316 321 322 321 321 319 320 323 324 320 316 319 319 319 322 324
313 313 315 312 309 310 311 309 308 309 310 310 309 309 310 310 310 309 309 309 310 310 310 311 311 311 311 312 313 312 310 311 311 311 311 311 310 311 312 312 313 312 312 314 314 313 314 314 314 314 313 312 312 312 310 310 310 310 310 309 308 309 309 310 311 310 312 313 313 315 316 316 321 326 323 321 323 323 323 325 327 326 320 320 322 320 322 324
313 314 314 311 309 310 310 308 308 310 309 311 311 309 310 311 310 310 310 309 310 310 310 311 311 311 311 311 313 314 311 311 312 311 311 311 311 311 312 312 312 312 313 315 314 313 314 315 315 316 315 315 315 314 313 313 312 312 312 310 310 310 310 311 311 311 313 313 313 315 315 316 321 324 321 320 323 325 326 328 329 330 324 320 323 322 322 324
313 314 311 309 309 311 310 308 309 310 310 311 311 310 310 311 310 311 310 309 310 310 310 310 310 311 312 312 312 313 311 311 312 311 310 311 311 311 311 312 312 312 314 315 314 314 315 315 316 317 317 318 318 317 317 317 315 314 314 313 313 313 312 313 313 314 315 314 313 315 316 315 318 321 321 322 323 323 326 329 329 330 326 322 324 323 323 325
312 312 310 309 308 309 310 309 310 311 311 311 310 310 310 311 311 310 309 310 310 310 310 310 310 311 312 312 313 313 312 312 311 311 311 312 312 311 311 312 313 314 315 316 315 315 315 316 316 317 318 319 318 318 318 317 317 316 315 315 315 314 314 315 316 316 316 315 315 316 317 316 317 320 323 322 321 320 323 327 330 330 327 323 324 324 325 323
310 309 310 309 309 310 309 308 310 311 311 310 309 310 311 311 311 310 309 310 310 310 310 310 311 312 312 313 314 314 313 312 312 312 312 312 312 311 311 312 313 314 316 316 315 316 316 317 316 316 317 317 317 318 317 317 317 316 315 316 316 316 317 318 318 317 316 317 318 318 318 319 319 320 321 321 321 320 320 324 327 330 326 322 325 325 324 325
307 308 310 310 310 311 311 310 310 311 311 310 309 310 311 310 310 310 309 309 310 310 311 311 311 312 312 312 314 314 313 312 312 312 312 312 312 312 313 313 313 314 315 315 314 315 317 317 317 316 316 316 317 318 317 316 317 316 316 317 318 318 318 318 319 318 317 319 319 318 319 319 319 318 319 321 323 323 321 321 325 330 328 321 324 324 322 331
308 307 308 309 310 311 311 311 310 310 311 309 308 311 311 310 310 310 309 309 310 310 311 312 312 311 311 312 314 314 314 313 313 313 313 313 313 313 314 315 315 314 314 314 314 315 316 317 317 316 317 317 318 318 317 317 317 318 318 318 318 318 317 317 317 316 317 318 318 317 318 318 317 316 317 320 323 322 321 323 327 330 330 321 323 323 325 334
308 308 307 307 310 311 311 312 311 310 310 308 308 310 310 310 310 310 309 310 311 311 311 312 312 311 312 312 313 314 314 314 314 314 314 314 314 314 314 315 315 314 314 314 315 315 316 317 316 316 318 318 318 318 318 317 318 319 319 317 317 316 316 316 316 316 316 317 316 317 317 317 316 316 317 319 321 322 325 329 331 331 331 328 326 324 327 335
307 308 307 307 310 311 311 312 310 310 309 307 308 310 310 310 310 310 310 310 310 311 311 311 312 312 312 313 313 313 312 312 313 314 314 314 314 314 314 314 314 314 314 315 316 316 317 317 317 317 319 319 318 319 319 318 318 319 319 318 318 317 317 317 316 315 315 316 317 317 318 318 317 317 319 322 324 326 329 332 332 331 329 328 329 329 328 332
305 307 308 308 310 310 311 311 310 310 310 309 309 310 309 309 309 310 311 310 310 311 311 312 313 312 312 313 313 312 312 312 313 313 312 313 313 313 313 313 313 314 315 316 316 316 317 318 318 318 319 319 318 319 319 320 321 322 321 320 319 317 316 317 316 315 315 315 316 317 319 319 320 322 324 326 329 330 332 333 336 336 332 328 330 333 331 331
Wind_Speed
21 21 20 20 20 21 21 20 20 20 20 20 20 21 20 20 19 18 19 19 19 20 20 20 20 21 21 22 22 24 26 26 24 21 17 13 12 12 8 5 7 9 10 10 11 12 12 13 14 14 13 10 9 8 12 12 9 9 8 10 11 12 14 13 15 14 12 14 13 12 10 9 10 11 13 12 18 20 21 21 20 21 19 20 14 29 38 33
21 21 21 21 21 21 21 21 21 21 21 21 21 21 21 21 20 19 19 19 20 20 19 19 19 20 21 22 22 23 25 24 23 22 17 17 17 17 15 13 13 11 8 10 12 13 12 11 13 13 11 8 8 10 12 11 11 10 8 10 11 13 14 14 17 16 16 14 9 10 10 11 10 11 13 13 12 14 17 20 21 23 21 11 20 32 32 31
21 22 22 22 22 21 21 22 22 22 21 22 22 22 21 20 21 21 20 20 20 19 19 19 19 20 20 21 22 22 22 23 20 11 6 12 15 15 15 13 13 12 11 12 13 13 13 12 12 11 9 9 9 11 13 11 11 11 10 10 11 15 16 17 18 18 16 8 10 11 13 12 11 10 11 14 14 16 18 20 19 21 20 12 23 27 28 29
22 22 22 22 23 22 22 23 22 22 22 22 22 22 21 20 21 21 21 20 20 19 19 18 19 20 20 21 22 21 19 18 9 3 6 4 6 6 6 5 7 9 10 12 14 14 13 12 12 11 9 9 9 12 13 11 10 9 11 12 13 16 16 18 19 20 17 4 8 7 10 11 11 10 11 14 12 13 15 16 17 19 18 14 17 19 25 25
23 23 23 23 23 23 23 23 23 23 23 22 22 21 21 21 21 21 21 20 20 19 18 18 19 19 20 21 20 18 15 9 3 9 5 1 3 5 7 6 4 6 9 12 15 14 12 12 11 10 9 9 10 11 13 15 12 9 13 15 16 17 15 17 17 20 17 3 8 8 7 9 12 12 12 15 12 11 10 6 10 11 5 12 12 12 16 21
24 24 24 24 23 23 23 23 24 24 23 23 22 22 22 21 21 21 21 19 19 18 17 18 17 18 19 20 20 15 10 4 6 9 5 4 6 8 9 4 1 4 10 12 14 13 12 11 10 10 9 10 13 13 13 15 14 11 12 15 18 18 16 17 16 18 12 6 8 9 8 10 13 13 13 15 15 15 16 15 15 10 8 8 9 12 8 8
24 24 24 24 24 24 24 25 24 24 24 23 23 22 22 22 20 20 19 19 18 17 16 16 15 16 17 19 18 12 11 8 2 9 6 4 6 7 6 4 5 7 10 13 14 12 11 11 11 10 10 10 13 15 15 16 17 14 13 16 18 18 18 16 17 18 11 8 8 10 11 11 15 14 12 16 16 19 21 18 19 18 11 4 1 7 14 5
25 25 25 25 25 25 25 25 24 24 24 24 23 23 22 21 20 19 19 18 17 16 15 14 14 14 15 15 13 8 9 5 6 8 2 1 5 7 6 8 9 10 12 13 13 12 11 11 11 10 10 12 12 14 17 17 16 16 16 17 16 15 16 14 15 17 10 8 9 12 14 12 15 15 15 19 17 21 24 18 18 19 17 10 6 4 13 17
26 26 26 26 26 26 25 25 25 25 24 24 23 22 21 20 20 19 19 18 17 16 14 14 13 12 11 10 9 7 1 5 8 6 2 1 6 8 8 11 11 11 12 12 13 12 10 9 10 10 10 12 12 14 16 15 12 15 17 15 14 14 15 16 15 13 9 8 10 14 15 12 15 15 16 20 16 21 25 21 19 18 21 16 6 8 6 13
26 26 26 26 26 26 26 26 26 26 25 24 23 22 21 20 20 20 19 18 17 16 14 13 11 10 10 9 9 5 2 3 0 3 3 2 5 8 10 11 10 9 11 11 12 12 10 10 10 8 9 11 12 13 13 12 10 11 13 12 15 16 15 16 14 9 8 10 12 15 15 13 14 13 13 15 12 17 25 23 20 18 20 18 10 9 11 10
25 26 26 26 26 27 27 27 26 26 25 24 23 21 21 20 21 21 20 17 16 15 13 11 9 7 9 9 8 4 4 4 4 2 4 5 6 9 10 9 8 8 10 11 12 12 11 12 10 6 5 6 9 12 11 12 13 14 14 11 13 16 15 15 13 10 10 10 12 14 15 14 14 14 14 15 13 14 21 24 22 20 20 18 14 12 13 13
26 26 26 26 27 27 27 27 27 26 24 23 21 20 21 21 22 22 18 15 13 10 7 7 4 5 9 8 9 10 7 7 5 5 7 6 8 10 10 10 9 11 12 12 12 12 11 12 10 8 7 5 7 9 6 8 12 13 14 12 13 15 16 17 16 15 13 11 12 13 14 14 15 17 17 16 16 16 19 23 23 19 18 19 17 12 14 13
26 27 26 27 27 27 28 28 27 26 24 22 19 19 20 21 21 19 15 12 9 7 6 3 4 6 8 6 7 9 8 7 5 5 6 7 9 11 12 12 12 13 13 14 14 13 12 10 10 11 10 9 8 8 7 8 9 11 12 10 10 12 14 17 17 18 17 14 14 13 10 11 14 18 19 16 17 19 18 20 22 19 15 17 18 14 15 14
27 27 27 28 28 28 29 28 28 26 22 20 18 18 19 20 20 17 13 10 5 6 5 4 6 7 7 7 7 4 3 5 5 6 7 7 8 10 12 13 12 11 11 13 14 15 13 7 9 10 10 10 10 11 12 10 8 10 11 9 9 9 11 15 16 19 19 15 16 15 9 9 12 15 16 17 20 21 19 19 20 19 16 15 17 16 17 15
27 28 28 28 29 29 30 28 27 24 21 20 18 18 18 18 18 13 10 7 4 3 1 4 8 7 6 9 9 5 4 6 7 8 7 7 8 9 11 11 9 9 10 12 12 13 12 8 9 9 8 11 11 11 11 9 8 9 10 9 9 10 11 15 16 19 19 15 17 16 9 9 12 14 14 14 17 19 19 19 18 19 19 17 17 17 17 15
27 28 28 29 30 30 29 27 26 22 20 20 19 18 16 16 17 12 7 4 2 2 4 5 11 10 6 4 4 7 7 8 8 6 6 7 8 10 11 10 8 8 9 10 10 11 11 9 9 9 9 10 10 10 8 8 9 9 10 10 10 11 11 12 15 19 19 14 16 15 9 9 11 13 15 15 16 16 16 17 18 19 19 18 16 15 16 16
27 27 28 30 30 30 29 26 24 20 19 20 20 19 16 16 18 12 6 5 5 7 10 10 8 9 7 5 1 5 8 8 6 4 6 8 8 11 13 8 7 10 11 11 10 10 10 9 7 8 9 9 9 9 8 9 8 8 9 10 12 14 12 11 13 16 17 13 12 14 12 12 12 13 14 12 12 13 12 14 16 17 16 16 17 17 17 15
28 28 29 30 31 31 28 25 22 17 18 21 21 21 19 17 15 11 9 9 8 11 15 12 7 4 5 8 7 5 4 3 1 4 8 9 10 11 11 10 9 11 11 10 11 11 9 7 8 8 8 9 9 9 9 10 10 10 10 9 10 13 13 14 12 10 15 13 12 13 13 15 16 14 14 12 11 11 12 12 13 14 15 15 17 18 15 12
27 28 29 30 31 30 27 22 18 15 18 20 21 23 19 13 8 8 10 11 7 7 8 6 8 5 6 8 8 6 6 7 8 10 10 10 11 11 12 11 11 11 11 9 9 11 8 7 9 9 8 9 11 12 12 14 15 15 13 11 11 11 11 14 14 8 12 14 13 14 14 14 15 14 14 13 13 13 13 12 12 12 13 14 15 15 14 14
28 29 30 31 32 30 25 18 14 14 15 19 24 21 11 6 3 3 6 9 8 10 12 5 9 10 10 9 9 10 8 9 11 11 9 9 7 8 11 10 10 10 10 10 10 9 8 8 10 10 11 13 14 15 16 17 17 17 15 13 14 13 11 13 14 12 11 11 12 15 16 14 12 13 13 12 13 14 14 14 13 13 13 12 14 16 17 17
29 30 31 32 32 27 21 14 11 12 14 18 22 14 6 8 8 6 7 11 12 14 17 9 7 11 10 10 12 10 7 8 11 9 9 7 3 4 7 8 10 9 9 13 12 9 8 10 12 14 15 16 16 15 15 17 16 16 14 12 12 12 12 14 15 13 13 12 11 15 17 14 13 14 15 15 16 16 14 14 14 15 15 13 14 16 18 16
29 31 32 32 29 24 18 13 9 11 14 16 15 6 9 10 9 11 10 11 13 14 16 10 8 11 10 11 7 4 7 9 10 7 6 6 4 5 6 6 9 9 9 10 9 7 7 11 15 17 16 15 17 15 15 18 17 14 11 10 10 10 12 14 15 14 12 10 11 16 16 16 18 16 14 17 18 15 15 15 14 15 15 15 16 14 15 15
30 32 34 31 26 21 17 12 10 11 13 14 10 8 10 10 10 13 10 8 12 12 14 10 9 10 10 8 3 5 9 9 10 6 3 5 6 8 8 9 10 11 10 9 8 6 5 11 13 13 11 11 14 15 15 15 14 12 10 9 10 11 11 10 11 13 13 11 12 17 14 14 18 15 13 17 19 17 16 18 17 16 15 15 17 15 14 15
31 33 33 29 22 19 17 14 12 13 12 13 9 12 11 12 10 12 9 6 8 10 10 6 5 5 4 5 5 6 8 7 9 6 4 6 8 8 9 11 11 12 11 12 14 11 12 14 9 9 11 10 12 15 14 8 8 13 13 11 12 13 14 11 11 12 12 12 12 15 13 11 15 16 15 15 17 18 17 18 18 17 16 15 15 16 16 14
32 34 31 25 19 17 18 14 10 12 11 7 10 13 12 13 10 9 7 5 4 5 4 1 2 4 5 6 8 6 8 9 9 7 4 8 9 7 8 9 8 10 13 15 15 11 14 14 10 10 12 12 13 13 13 7 6 12 13 14 15 15 17 16 15 12 9 9 10 12 11 9 12 17 18 13 13 16 16 18 19 17 17 17 15 15 16 15
33 33 28 21 16 16 15 8 8 15 12 7 12 13 12 11 9 8 5 4 2 1 1 1 3 2 5 7 8 7 10 8 5 7 9 9 7 7 8 7 6 10 13 13 10 7 9 12 12 13 13 13 13 12 14 9 6 10 11 13 14 14 17 17 15 12 9 9 10 11 11 9 10 13 17 15 16 19 18 20 21 18 17 17 16 15 16 15
34 32 24 17 13 15 11 7 14 17 9 10 14 12 11 11 10 6 4 2 1 0 2 0 1 2 4 5 7 8 9 7 6 10 10 6 4 6 7 8 8 9 8 6 6 6 7 11 13 14 15 13 10 10 12 10 7 10 11 12 10 9 14 15 14 12 9 10 12 14 13 10 10 12 15 18 19 19 19 21 21 19 19 18 17 17 17 16
35 30 20 13 9 10 10 10 15 13 9 12 14 11 12 12 9 4 4 1 2 0 2 2 1 3 6 8 9 9 10 12 7 6 7 7 6 6 8 10 11 11 9 5 7 9 9 13 13 12 11 10 9 10 11 11 9 10 11 12 8 6 12 13 12 11 10 10 10 13 14 11 10 11 14 17 19 18 20 22 19 17 19 19 18 18 18 18
34 27 16 12 9 8 10 12 11 11 13 14 12 12 12 9 5 3 2 2 2 1 2 3 2 5 8 10 12 11 11 10 5 5 10 10 9 8 7 9 12 14 13 10 10 13 11 11 14 12 9 9 11 12 11 9 7 8 12 13 10 9 12 12 11 10 11 11 11 14 15 11 9 11 13 14 16 17 18 18 15 14 17 18 18 18 18 18
32 23 13 11 10 9 11 11 10 11 15 13 13 13 10 5 3 4 2 3 3 3 5 5 6 10 13 12 11 11 12 9 7 9 7 2 1 5 5 10 12 11 11 11 11 14 13 9 10 10 10 11 11 12 12 11 10 9 9 10 10 10 10 10 9 9 9 9 12 18 19 15 11 10 11 12 13 16 16 15 14 16 19 18 17 17 17 17
28 18 9 8 9 11 11 8 8 15 15 13 15 13 8 4 3 3 6 6 5 7 8 8 11 14 15 14 10 10 12 9 10 11 6 7 4 2 1 6 9 7 7 8 8 12 14 9 4 6 11 13 12 10 11 11 10 9 6 6 7 7 7 8 7 8 8 9 13 19 21 19 14 9 11 13 15 19 18 16 17 19 19 18 16 17 18 18
23 12 6 7 8 9 10 10 15 18 14 14 15 9 5 4 3 3 8 7 5 8 10 11 13 14 15 14 10 11 12 9 9 11 9 7 8 4 3 1 4 5 5 5 5 9 10 7 6 6 5 10 12 8 7 8 8 8 7 5 5 5 5 6 7 7 8 10 14 18 19 18 14 12 16 17 18 21 20 17 18 17 16 16 18 17 17 16
15 7 5 7 8 10 11 12 15 15 13 14 11 5 4 5 4 7 9 8 7 9 12 13 14 16 14 10 8 11 12 11 11 12 12 11 11 6 5 6 2 4 3 7 8 8 7 3 5 5 2 3 9 6 4 5 5 7 7 5 6 5 5 7 8 8 8 11 15 19 18 14 11 13 19 22 21 21 20 19 20 19 15 14 17 18 17 17
8 4 5 7 10 11 11 12 13 13 13 11 7 5 5 5 6 10 10 9 10 12 13 14 17 16 11 8 8 10 9 9 14 15 14 11 8 6 4 4 3 3 3 7 6 5 8 4 2 4 2 6 8 8 6 3 3 7 7 6 7 6 5 7 6 7 8 9 12 15 12 10 9 11 16 21 21 21 20 20 20 19 16 15 16 18 19 19
5 5 8 10 11 9 9 12 12 11 11 8 6 6 5 5 7 9 9 9 10 12 14 16 16 13 10 8 8 10 9 9 14 16 12 10 9 7 5 4 7 8 5 6 4 4 8 4 2 7 4 4 7 10 8 3 3 7 6 7 8 6 6 6 7 9 10 9 10 10 7 8 10 13 16 18 19 20 21 22 23 20 17 17 17 17 19 19
7 8 9 9 9 9 9 10 9 9 8 7 6 4 5 6 7 7 8 10 10 12 15 14 11 9 9 8 6 10 12 10 13 13 9 11 11 7 6 4 8 10 6 5 5 4 5 4 4 7 8 7 10 11 7 6 4 3 5 7 6 7 8 7 9 10 10 11 9 8 9 10 11 13 16 19 20 21 21 21 23 21 19 19 18 14 14 18
11 10 9 7 9 12 11 9 8 8 5 6 6 5 6 6 9 9 9 11 12 12 12 10 8 8 9 8 8 13 14 10 12 11 8 12 9 6 5 3 5 8 6 4 4 3 3 7 8 8 8 6 8 10 8 9 7 4 4 5 5 7 8 6 7 7 8 10 8 9 13 12 10 9 11 18 22 22 23 22 22 21 21 21 19 15 14 17
12 10 8 7 9 13 12 9 8 7 5 5 5 5 7 8 10 11 11 12 12 11 9 7 7 8 9 9 10 14 13 9 11 11 9 9 6 6 5 2 3 8 7 4 4 3 4 7 7 5 5 4 4 7 7 8 10 9 6 4 4 6 5 4 6 7 8 9 8 11 14 12 11 8 6 10 14 16 21 23 21 22 22 21 19 18 19 18
10 7 3 3 9 13 13 11 9 6 5 5 6 6 7 10 10 11 11 12 11 9 8 8 7 7 9 11 12 10 9 9 12 12 7 5 6 6 5 2 5 9 9 8 6 5 4 4 5 4 5 5 3 4 5 3 5 8 8 5 5 5 4 4 5 5 7 8 8 11 12 9 8 3 3 9 14 16 16 19 20 19 20 20 18 18 18 18
8 4 1 8 13 14 14 12 8 5 5 4 7 5 6 9 10 11 11 11 9 7 7 9 9 8 9 12 11 6 5 9 12 10 7 7 9 7 4 1 5 9 13 12 7 5 3 3 5 6 7 6 3 3 5 5 3 5 6 6 6 5 4 6 6 6 7 7 7 9 9 8 5 1 4 12 16 18 17 16 16 17 18 20 20 18 16 16
6 2 3 11 18 16 13 10 4 3 4 6 6 6 6 6 8 11 12 10 9 6 6 8 9 8 9 10 9 5 5 8 10 9 7 6 9 6 3 3 5 7 11 11 6 3 3 4 7 8 7 6 5 6 9 8 6 5 5 6 7 6 6 7 8 7 7 7 7 8 10 11 7 3 8 14 14 16 19 17 13 16 20 22 22 20 16 16
4 3 5 13 22 20 12 5 4 4 4 6 7 7 8 5 7 11 12 11 11 8 6 8 9 9 9 8 5 4 4 6 7 8 8 9 9 7 6 9 8 6 7 9 7 3 2 4 7 9 8 8 9 11 12 11 10 8 7 7 8 7 7 8 8 7 6 7 8 7 9 12 5 5 8 12 13 15 16 18 16 16 18 18 21 21 16 16
3 6 5 8 19 20 10 3 6 5 5 7 9 8 9 7 9 11 11 12 11 8 8 8 8 9 10 9 4 1 0 4 5 6 10 12 10 9 11 12 10 8 8 7 6 5 2 4 6 8 8 9 10 9 10 9 8 8 7 7 8 8 8 9 9 8 7 8 9 6 9 11 3 5 7 11 13 15 15 17 18 15 13 13 17 19 17 16
5 6 3 6 14 14 7 5 7 5 7 9 10 10 9 8 10 10 11 12 8 8 10 9 9 9 9 11 9 1 2 2 4 5 9 11 11 13 14 12 11 11 8 4 4 4 3 4 5 7 8 7 4 2 5 5 4 5 7 8 10 11 12 11 9 8 9 11 12 8 11 10 1 4 10 16 15 15 15 16 15 12 12 13 14 16 17 16
6 4 3 9 11 7 4 5 6 6 7 9 10 10 10 8 8 9 10 11 8 9 10 9 10 11 10 12 13 7 2 4 3 5 7 10 12 13 13 13 13 10 7 7 6 4 5 5 5 6 7 7 6 5 5 4 3 5 7 9 11 11 13 11 7 7 9 11 11 9 11 12 5 1 8 15 14 14 17 16 12 10 11 13 13 14 15 15
5 3 5 8 8 5 3 4 6 6 7 9 8 8 11 10 8 10 11 9 9 11 10 9 9 10 12 13 12 9 5 3 4 6 8 11 10 10 13 15 13 9 7 9 9 4 4 6 7 7 7 7 9 10 9 8 7 7 8 11 12 11 12 9 6 8 8 9 11 11 11 17 17 9 6 10 11 13 18 16 12 12 10 14 14 13 14 14
4 4 5 6 5 5 4 6 8 7 6 6 6 8 12 12 10 10 10 9 10 12 10 9 10 11 13 14 9 7 7 7 7 9 10 11 10 13 16 11 7 6 7 8 8 4 3 7 9 10 11 11 12 13 13 11 10 10 11 12 11 11 10 8 9 10 8 8 10 9 8 14 20 15 9 11 12 13 16 17 16 14 10 14 12 13 16 15
5 4 4 4 3 5 6 7 8 10 6 5 6 8 11 13 12 10 9 9 11 11 8 8 13 16 16 16 11 5 6 8 7 8 10 12 12 14 15 8 2 4 6 7 6 3 3 7 8 11 14 15 14 14 13 10 10 10 10 11 11 11 10 9 11 12 9 10 12 11 13 17 20 19 16 13 12 13 16 16 17 17 10 16 15 16 18 16
5 4 4 5 4 7 7 5 8 11 7 7 6 8 10 13 14 11 10 10 10 10 10 10 16 19 19 17 12 6 6 8 7 8 10 12 13 12 12 9 3 3 7 10 7 3 3 5 9 13 15 16 14 12 10 9 9 9 10 12 12 11 11 11 12 13 13 14 16 17 21 22 20 18 18 16 12 12 14 13 16 17 10 14 17 16 16 16
5 3 5 7 6 7 7 6 8 9 6 8 7 8 10 13 14 13 11 11 10 10 11 14 18 20 19 18 14 10 11 11 10 10 11 12 12 10 7 6 6 8 11 9 6 5 4 5 10 12 11 12 12 9 8 8 8 9 11 12 12 11 12 12 11 11 11 14 16 14 16 19 17 14 15 15 11 10 12 13 12 10 5 3 11 16 16 17
8 4 3 6 6 7 8 7 7 7 5 7 7 8 10 13 14 14 11 10 10 11 13 16 19 18 16 16 15 15 16 16 16 15 13 12 12 9 7 7 9 11 10 8 7 7 5 6 9 8 8 9 8 8 11 10 9 9 11 13 14 11 9 8 7 7 8 11 12 10 10 13 12 9 9 11 11 9 8 9 6 2 2 2 4 12 15 17
11 5 4 6 6 7 8 7 6 6 5 5 8 9 11 12 14 13 9 7 10 13 14 16 17 15 14 15 15 14 15 16 17 17 13 11 12 10 8 10 12 10 8 7 8 6 5 7 6 5 7 9 9 11 14 11 6 5 8 12 13 10 8 7 8 10 12 12 9 8 9 9 7 8 8 8 7 4 2 6 9 5 1 3 5 8 11 15
Wind_Direction
348 345 344 342 341 339 337 336 335 333 332 331 328 327 326 324 322 320 319 317 317 315 313 312 311 313 313 313 313 313 314 312 307 298 283 273 273 272 280 260 239 254 262 265 251 247 255 245 238 238 241 238 230 234 235 233 235 231 226 233 237 239 239 240 245 250 261 261 255 264 293 325 321 309 300 264 238 232 231 227 227 242 231 219 193 140 144 148
347 346 343 341 339 338 337 335 334 333 331 330 327 325 323 322 320 318 317 316 315 313 310 310 310 312 312 311 312 314 315 308 295 289 275 261 261 265 272 271 267 269 248 237 242 243 249 246 239 232 229 235 229 226 227 225 226 226 230 232 235 242 245 249 250 256 260 273 322 358 352 334 322 322 314 297 277 265 247 227 221 229 233 200 134 134 142 145
347 346 343 341 338 337 336 334 333 331 330 329 326 324 321 320 319 316 315 314 312 310 308 308 310 310 311 311 310 316 315 302 293 289 247 237 249 260 267 265 255 244 226 234 255 262 265 265 266 257 234 230 234 231 226 218 221 224 230 235 237 241 249 254 255 261 262 298 7 1 349 331 308 315 316 307 300 290 264 225 217 225 216 152 123 138 143 146
346 344 342 341 338 337 336 334 332 330 329 327 325 323 321 319 317 315 313 311 309 308 309 309 309 309 310 310 311 318 311 296 294 92 120 213 247 252 237 214 203 210 226 247 263 273 276 275 275 271 253 241 239 238 233 223 218 216 224 237 244 245 250 250 252 259 260 344 19 330 334 317 299 310 309 307 302 280 261 215 206 227 213 146 124 147 147 152
345 343 342 340 338 336 334 333 331 329 328 326 325 322 320 318 316 314 311 310 310 308 309 308 308 309 308 309 313 315 305 297 113 119 118 159 170 154 149 149 171 215 244 256 261 265 265 263 262 256 250 251 246 242 237 226 224 225 230 237 244 250 254 251 249 248 247 344 3 321 320 308 304 306 302 306 303 278 281 262 226 234 208 121 134 172 159 162
343 342 340 339 337 335 333 331 330 329 328 326 324 322 319 318 316 315 312 311 311 309 309 308 308 308 307 311 310 300 285 307 98 128 140 135 155 159 156 157 280 251 252 259 262 260 253 249 249 245 241 243 243 244 243 230 224 233 241 240 243 247 252 258 258 253 260 337 342 320 316 309 298 295 301 298 295 292 303 317 308 324 24 93 156 183 170 187
342 341 340 339 336 334 333 331 330 329 327 325 324 322 320 319 318 317 315 313 312 309 309 306 305 306 312 316 306 273 247 274 100 128 143 158 179 175 178 235 278 257 249 254 253 251 251 248 243 246 245 243 243 243 247 243 231 231 242 244 245 246 247 253 263 268 290 327 308 301 301 296 286 287 295 285 288 296 298 313 314 320 332 343 284 175 151 198
342 341 339 338 335 334 333 331 330 328 327 326 324 323 321 321 319 318 317 314 311 309 307 304 304 307 315 320 311 270 244 251 131 139 144 183 199 198 220 246 245 242 245 249 250 249 250 250 249 250 249 247 249 247 244 244 238 233 237 243 247 252 258 261 268 276 295 309 287 281 282 283 284 288 286 279 286 290 288 298 301 305 302 285 306 295 154 165
341 340 339 337 336 333 332 331 330 328 327 325 323 323 321 321 320 318 316 312 309 305 301 299 299 306 311 306 299 290 286 95 122 167 191 152 205 211 237 247 232 230 244 248 250 253 254 254 253 253 263 264 267 271 259 247 240 236 239 251 261 260 263 264 263 272 286 284 275 272 273 276 282 285 279 273 279 284 283 286 285 288 290 281 274 295 254 188
341 340 339 337 335 333 332 331 330 328 326 324 323 321 319 320 319 318 316 314 309 299 294 292 292 299 297 283 275 280 65 58 338 188 188 220 229 220 235 252 242 231 246 253 247 248 250 254 269 291 299 285 276 282 277 265 266 259 250 254 266 268 266 266 262 263 269 266 267 271 273 273 276 276 272 273 275 280 282 281 278 273 277 281 278 276 276 258
340 340 338 337 335 334 332 330 329 327 325 323 320 319 319 321 323 322 321 320 311 298 289 281 279 278 274 276 269 268 34 342 297 275 250 237 238 237 237 249 256 252 257 260 250 248 251 261 280 300 285 283 274 270 272 270 273 271 266 264 271 277 276 273 269 258 256 258 256 262 268 266 264 260 261 274 276 273 280 282 277 272 272 272 273 274 270 268
340 339 338 337 335 333 332 330 329 326 324 322 318 319 320 323 326 323 321 320 315 312 301 274 249 243 261 272 254 258 313 317 286 281 265 242 239 241 245 253 259 263 264 262 254 244 246 262 276 271 262 295 284 265 288 291 275 268 269 272 268 266 261 257 255 249 248 250 247 251 260 253 247 252 255 264 270 264 267 276 279 276 273 270 267 269 262 263
340 339 337 337 334 333 332 329 328 325 322 321 320 320 318 322 323 319 318 317 322 335 317 262 197 226 256 271 247 250 290 294 280 278 260 252 248 239 243 251 255 258 259 259 260 255 247 244 253 262 269 282 274 270 303 299 274 266 265 267 265 261 254 247 246 244 243 240 235 236 249 248 242 246 247 245 250 254 254 259 271 275 273 269 265 266 258 254
339 339 337 336 334 333 331 328 327 323 321 324 324 319 315 319 318 316 316 309 327 335 298 220 202 224 239 264 266 237 261 270 255 252 247 239 238 236 234 236 246 251 249 250 257 269 275 260 249 260 265 265 269 281 288 274 254 254 253 251 252 256 254 246 239 234 235 231 222 224 240 249 248 247 242 235 229 234 243 246 256 265 268 265 260 262 261 259
339 338 337 335 334 332 330 328 326 322 324 326 321 315 312 314 315 319 317 303 319 322 230 177 208 224 249 260 254 223 240 255 232 234 241 233 236 236 223 215 227 237 237 244 249 260 270 267 257 259 256 253 255 264 271 261 250 245 244 245 239 242 252 251 244 234 230 222 209 212 236 245 247 255 252 249 237 223 225 235 242 250 254 256 255 256 259 262
339 337 336 335 333 332 329 327 326 325 326 325 319 315 311 309 309 310 309 284 272 208 169 194 201 212 277 299 174 190 235 240 215 210 221 233 254 260 244 215 210 227 230 237 248 254 254 251 251 255 257 253 245 243 250 252 247 235 235 245 241 242 248 243 240 234 226 214 198 201 228 248 244 247 242 242 247 235 221 223 228 235 241 244 246 246 245 245
338 337 335 334 333 332 329 327 326 327 329 325 319 316 314 306 296 289 276 242 240 217 217 243 220 209 260 305 168 202 236 229 187 189 229 233 245 271 280 258 232 239 230 224 235 247 247 242 242 250 252 248 246 242 241 242 242 235 231 237 240 243 252 251 241 224 213 204 196 204 224 242 245 252 253 248 248 247 237 229 226 227 231 234 237 239 239 234
337 336 335 333 333 330 328 327 326 331 332 322 318 321 319 306 288 278 265 240 240 233 230 252 268 254 258 261 264 264 271 287 341 274 271 262 237 245 270 269 266 264 250 235 229 231 237 241 241 245 241 235 238 237 238 242 244 249 245 243 243 242 246 255 256 215 194 197 204 220 234 241 243 247 256 261 261 258 253 247 241 233 226 226 231 238 243 240
336 335 334 332 331 329 328 328 329 335 330 322 328 328 317 300 270 252 248 233 228 243 249 225 203 245 293 262 268 304 319 329 296 256 254 261 242 234 240 244 259 264 264 258 236 231 233 239 240 242 244 238 232 227 235 249 257 260 260 259 257 254 250 253 262 235 194 195 200 215 225 233 241 243 240 240 246 250 252 253 254 251 237 225 226 230 236 235
336 335 333 331 330 328 327 327 332 334 323 320 327 325 313 316 307 246 257 258 251 262 280 258 202 252 292 295 314 320 314 316 290 269 265 258 241 256 253 239 249 249 251 257 250 238 231 240 242 239 243 245 245 240 239 245 255 263 264 264 263 265 266 257 259 255 236 227 217 221 226 228 239 254 259 255 251 248 244 246 248 254 253 238 227 221 225 230
336 334 333 331 329 328 327 326 331 328 317 310 311 317 359 11 353 344 331 302 285 272 275 274 256 276 287 294 311 312 304 305 288 285 283 259 209 266 260 235 247 248 241 249 254 246 233 240 244 245 250 251 253 256 258 257 255 260 262 262 263 261 264 261 256 254 259 263 254 251 252 248 239 243 260 262 257 253 246 242 239 244 251 253 244 224 221 225
335 334 333 332 333 332 325 320 314 314 322 308 295 329 24 11 351 338 333 303 296 289 281 272 248 262 267 263 281 307 294 296 287 276 248 234 217 246 259 240 248 258 252 250 254 255 255 250 245 249 256 262 263 261 271 273 263 258 260 260 259 255 256 260 257 249 250 255 254 258 260 258 246 232 243 254 252 250 247 246 243 242 243 247 252 240 225 219
334 335 337 337 336 331 323 317 300 298 311 300 301 24 19 358 351 335 327 293 292 284 266 255 236 253 272 270 10 360 294 290 300 303 151 194 251 257 264 263 260 267 263 251 245 240 260 258 255 267 274 287 285 269 265 272 268 259 254 256 257 258 260 258 256 254 257 259 261 266 264 265 262 245 238 250 252 249 243 243 242 242 244 241 246 248 240 224
335 338 340 339 334 329 324 314 293 280 273 276 321 25 8 344 352 338 325 283 286 274 245 237 256 287 315 306 343 329 292 290 293 300 145 200 253 261 264 268 269 270 264 258 256 249 253 254 257 280 279 283 287 274 265 268 272 263 254 254 256 258 262 264 268 269 271 269 267 269 263 257 261 254 244 239 243 246 242 241 237 234 238 240 242 246 252 242
337 341 341 338 332 330 322 310 292 284 279 295 352 13 355 343 356 353 331 273 263 259 227 183 287 347 7 290 275 278 293 297 284 284 241 237 264 278 276 275 270 273 273 271 270 263 263 266 262 257 251 250 260 268 264 258 265 261 252 255 265 271 270 266 269 270 267 261 250 250 256 252 247 251 253 242 234 241 241 241 240 234 231 233 236 237 247 251
339 342 340 336 332 330 324 320 322 310 309 360 10 1 347 343 357 360 325 270 243 203 211 155 191 333 340 295 290 297 299 297 285 286 264 247 271 285 281 282 267 269 277 279 280 273 270 274 267 257 246 243 254 258 251 250 275 268 255 257 270 284 280 274 272 265 257 260 251 241 248 258 251 249 253 251 241 236 234 234 235 236 232 229 232 230 236 244
341 341 337 330 330 332 330 333 329 321 332 6 356 346 341 350 1 343 283 257 85 97 310 347 160 327 303 288 305 297 293 300 298 294 277 243 253 259 254 267 270 270 283 297 283 272 276 273 265 260 253 245 250 252 236 222 238 258 261 265 276 291 287 286 281 269 261 264 261 250 249 256 256 250 251 254 249 239 233 230 226 227 230 228 229 227 228 234
342 341 332 323 321 313 298 301 318 329 355 346 338 338 336 347 357 312 263 338 56 78 307 344 360 281 259 273 290 286 294 299 293 288 266 224 212 235 241 255 270 274 279 288 272 271 279 277 273 269 262 252 244 249 241 223 230 264 277 269 266 281 285 285 277 270 265 260 256 247 244 248 250 248 248 252 253 249 241 233 223 220 225 224 227 227 224 228
342 339 328 314 306 288 278 277 289 322 342 333 334 338 329 336 341 265 243 321 4 68 323 331 310 289 294 300 304 309 306 291 271 257 250 226 218 237 254 267 275 276 273 271 273 277 280 289 296 285 267 264 261 259 254 235 236 267 278 271 259 255 260 261 260 263 262 258 255 249 245 247 248 241 239 240 244 249 248 240 234 235 234 224 221 227 223 221
341 337 325 308 307 313 299 264 256 315 336 333 335 330 316 320 304 273 320 350 347 359 341 332 327 322 322 320 320 323 312 297 296 284 274 27 326 249 274 288 277 272 276 276 277 281 280 297 315 289 259 263 271 272 262 250 252 254 258 270 267 258 251 247 252 260 260 255 251 248 247 249 252 243 237 236 236 241 244 238 231 236 245 238 219 219 223 220
341 333 314 293 303 320 311 290 310 332 336 334 330 316 290 278 262 294 7 15 352 348 344 335 333 329 327 328 330 322 314 320 328 315 329 24 356 250 272 290 268 261 277 276 275 282 274 264 270 266 270 273 266 267 267 259 261 255 245 263 269 265 254 243 242 246 252 254 249 249 248 248 249 247 246 244 243 246 245 237 228 221 228 240 231 215 215 221
340 329 292 277 293 299 294 310 329 328 329 329 321 305 280 278 258 326 357 8 8 354 340 334 336 330 325 330 333 326 327 336 339 334 339 326 300 305 63 57 292 289 294 297 291 287 279 258 234 234 292 292 264 252 264 261 257 247 236 238 251 260 253 239 233 234 242 247 248 251 251 250 251 252 252 249 247 250 250 248 249 239 221 228 238 224 209 214
339 319 279 278 286 280 279 298 313 318 325 323 311 294 292 304 346 358 349 358 5 344 334 336 334 326 322 331 343 344 339 337 340 337 332 319 307 326 59 78 347 272 274 313 310 304 308 294 239 220 123 284 262 250 255 260 256 244 235 224 233 243 244 243 241 241 247 248 248 251 252 255 258 252 249 247 246 248 248 247 252 255 246 235 237 228 208 204
340 311 302 290 274 268 279 295 306 316 322 316 294 274 293 313 358 2 355 360 347 332 335 337 328 324 328 343 7 11 351 337 343 334 324 325 316 323 40 70 344 300 294 314 323 324 316 324 327 306 150 170 216 237 253 284 272 243 238 233 236 241 247 255 260 259 267 271 264 260 256 255 257 249 247 248 245 242 240 242 245 246 246 248 249 231 209 200
336 308 300 284 274 276 291 297 304 313 313 308 287 282 317 345 355 356 356 353 337 330 335 331 326 328 336 350 16 19 3 343 339 331 325 330 323 334 17 34 5 9 355 326 342 327 300 297 335 308 288 193 220 232 226 228 272 252 238 231 234 243 248 259 276 276 282 290 278 268 259 253 260 259 254 253 254 248 239 234 237 238 232 238 253 237 205 196
335 306 280 268 290 319 319 308 308 309 305 308 307 323 12 7 357 358 349 340 336 334 331 328 335 339 334 342 353 355 359 354 339 336 333 327 328 4 37 35 14 10 356 322 316 304 298 305 310 299 293 275 264 259 222 193 219 236 233 239 246 258 252 252 272 272 272 272 266 263 262 260 263 260 251 246 249 256 254 240 230 230 227 230 243 243 212 194
337 313 291 284 318 331 326 318 314 305 297 299 313 357 21 8 10 4 343 343 344 337 329 329 345 342 332 336 329 336 350 352 342 343 329 322 336 28 38 59 29 358 338 314 301 307 317 301 298 293 286 269 265 274 252 218 221 225 242 249 243 250 244 238 267 274 268 268 268 266 265 265 263 259 249 240 237 240 247 246 233 220 222 228 231 242 235 203
317 303 293 288 316 324 324 323 312 300 283 284 309 3 7 3 13 1 343 346 344 336 334 335 344 340 333 331 324 336 350 345 338 339 325 319 339 19 24 53 353 335 325 307 293 319 332 304 296 290 300 346 345 293 266 232 230 238 256 256 225 247 246 227 251 267 272 274 275 272 270 268 262 266 288 277 267 253 237 237 236 216 212 223 225 234 237 208
293 283 290 341 338 330 327 317 301 285 270 298 344 6 359 356 355 346 346 347 337 334 336 330 335 334 325 323 324 339 356 340 330 330 325 320 319 346 31 58 318 325 327 316 289 287 321 307 296 308 328 349 348 282 272 262 235 238 247 238 226 253 267 255 254 262 274 276 282 288 284 273 263 268 332 305 299 288 251 233 234 219 207 215 221 230 228 202
287 269 52 17 348 337 328 305 284 279 282 346 8 349 350 353 336 335 351 347 330 331 330 322 326 324 314 320 331 350 350 330 327 320 312 313 312 328 45 81 296 315 324 321 302 294 309 271 272 303 322 315 298 269 269 276 261 237 243 243 235 239 247 260 261 250 259 267 274 287 285 275 269 217 274 278 282 288 276 248 227 211 205 211 218 227 217 189
295 297 39 2 346 342 326 294 279 315 339 18 356 329 354 351 325 336 349 343 332 331 328 322 322 321 320 328 343 2 335 319 322 316 302 309 316 325 17 341 310 317 325 325 323 315 288 269 280 289 302 297 280 280 279 283 282 249 243 253 250 250 253 259 262 252 252 262 268 282 286 279 277 285 284 279 272 274 277 269 240 209 207 210 212 218 206 179
287 344 358 344 344 343 321 304 6 354 20 16 318 326 5 342 325 342 347 348 345 341 337 330 326 326 328 336 357 12 339 310 302 310 315 313 314 321 335 336 329 313 310 313 321 324 262 272 283 279 285 280 266 272 283 297 305 288 267 259 257 265 264 258 266 269 265 269 272 279 280 274 292 2 316 293 282 274 273 274 263 233 216 207 199 198 188 172
336 341 336 347 352 344 324 2 16 351 27 1 319 347 12 346 341 347 347 353 350 340 340 335 330 331 330 335 344 143 318 298 269 289 319 318 319 330 334 336 332 311 301 307 323 340 321 275 278 284 288 272 257 266 280 292 305 291 270 262 257 253 251 255 268 278 281 276 271 273 268 265 309 24 316 300 288 270 259 261 263 251 229 206 185 177 173 172
326 305 315 3 356 347 349 27 2 349 19 354 334 360 10 350 351 352 349 351 344 337 338 330 330 332 326 325 324 285 154 291 276 290 315 318 323 328 327 333 331 314 307 327 346 343 315 289 300 309 306 291 273 284 290 294 308 283 267 270 270 263 261 261 262 269 271 262 257 259 262 261 339 25 314 311 294 270 264 263 265 261 231 204 176 168 171 174
308 271 332 351 340 340 38 39 354 348 8 352 339 354 1 352 0 21 12 348 337 344 336 323 328 328 321 324 326 322 212 192 247 294 309 315 316 316 321 328 323 309 314 336 332 309 288 287 299 302 305 312 314 312 309 305 290 271 263 265 270 270 269 265 261 260 260 258 254 250 260 272 285 279 288 300 302 301 297 282 275 279 236 189 164 169 174 172
321 320 345 344 331 338 49 48 13 356 355 351 335 345 359 349 351 28 20 347 344 350 330 318 331 329 328 332 328 320 303 241 248 276 299 314 312 309 318 325 323 319 329 324 308 292 286 282 280 281 285 294 294 296 302 303 296 289 282 277 275 274 273 270 260 251 256 276 270 250 256 277 284 273 259 287 303 315 310 301 302 293 238 174 160 171 171 168
334 344 350 344 325 341 16 28 8 339 334 349 331 341 357 345 341 9 6 344 348 345 328 326 337 338 338 337 326 312 318 309 287 292 310 317 315 314 316 324 336 320 310 306 297 288 284 283 283 284 285 289 293 296 299 299 297 294 291 289 288 289 287 270 252 254 267 286 273 254 257 277 284 291 301 310 315 314 309 310 308 289 221 164 160 170 165 157
354 338 5 7 315 323 353 5 341 319 334 13 344 343 350 341 346 0 350 342 346 343 339 332 334 341 342 334 325 313 321 316 304 322 334 326 322 320 318 327 342 263 283 312 318 306 284 285 291 296 299 303 304 304 306 303 297 293 288 283 281 280 275 257 251 257 261 259 262 278 293 287 286 296 303 305 304 297 294 295 295 283 222 166 166 170 160 144
355 334 8 5 314 298 311 327 318 316 352 31 2 354 351 340 349 356 343 341 342 342 345 330 330 340 338 330 329 327 329 328 321 330 333 324 318 316 318 328 325 282 319 331 335 340 301 281 303 313 310 306 305 309 316 309 295 286 273 266 266 265 263 259 259 258 253 253 262 276 287 285 280 283 288 286 279 276 278 277 277 276 243 169 162 163 151 131
351 341 349 335 314 299 292 294 306 314 357 20 1 356 347 338 345 346 338 340 336 333 338 331 330 334 331 329 334 332 332 333 323 318 321 319 315 313 317 322 321 330 335 331 329 334 313 292 315 321 308 298 300 303 301 288 272 269 268 264 259 256 259 262 261 259 252 252 259 264 273 278 276 272 273 275 272 269 273 272 261 259 274 179 158 154 143 130
342 328 323 314 312 312 302 301 314 323 359 9 354 343 334 335 343 338 331 336 329 326 333 332 330 330 327 328 334 334 331 327 316 309 307 301 297 299 300 297 308 322 323 316 314 316 310 301 310 317 306 297 295 286 282 275 263 265 274 271 264 256 254 257 258 262 256 256 266 270 259 260 269 280 280 278 285 286 287 303 309 158 174 273 153 140 140 139
349 331 313 308 297 299 302 309 333 351 7 353 335 328 325 330 337 334 327 327 329 331 333 328 326 327 326 329 336 333 321 311 305 303 299 287 280 279 275 277 287 294 293 300 304 299 300 301 304 321 305 290 291 292 287 281 270 275 274 261 254 249 239 248 268 270 260 253 250 248 247 250 266 288 284 275 287 304 347 355 2 39 154 215 145 128 137 140